[[{"header":{"parameterUnit":"m.s-1","parameterCategory":2,"la1":30.2991,"la2":30.254,"lo1":-89.0895,"lo2":-89.0444,"dy":0.0017,"dx":0.0017,"nx":28,"ny":28,"refTime":"2025-12-19T09:00:00:Z","depth":"0","parameterNumber":2,"parameterNumberName":"U-component_of_CURRENTS"},"data":[0,0,0,0,0,0,0,0,0,0,0,0,0,0,0,0,0,0,0,0,0,0,0,0,0,0,0,0,0,0,0,0,0,0,0,0,0,0,0,0,0,0,0,0,0,0,0,0,0,0,0,0,0,0,0,0,0,0,0.3823,0.3823,0,0.3843,0.3843,0.3843,0.3819,0.3819,0.3818,0.3817,0.3796,0.3796,0.3796,0,0,0,0,0,0,0,0,0,0,0,0,0,0.3767,0.3768,0.3823,0.3823,0.3824,0.3843,0.3843,0.3843,0.3819,0.3819,0.3818,0.3817,0.3796,0.3796,0.3796,0,0,0,0,0,0,0,0,0,0,0,0,0,0.3787,0.3769,0.3823,0.3817,0.3816,0.3843,0.3843,0.3843,0.3819,0.3819,0.3818,0.3817,0.3796,0.3796,0.3796,0.3814,0,0,0.3796,0.3796,0,0,0,0,0,0,0,0,0.3786,0.3789,0.3817,0.3817,0.3817,0.3831,0.3816,0.3832,0.382,0.3815,0.3817,0.3816,0.3806,0.3805,0.3807,0.3813,0.3812,0.3796,0.3796,0.3796,0.3796,0,0,0,0,0,0,0,0.3785,0.3788,0.3828,0.3818,0.3818,0.3815,0.3816,0.3819,0.3812,0.3815,0.3814,0.3822,0.3805,0.3807,0.3806,0.3812,0.3796,0.3796,0.3796,0.3796,0.3874,0.3876,0,0,0,0,0,0,0.379,0.3787,0.3827,0.3829,0.3803,0.3817,0.3818,0.3825,0.3813,0.3812,0.3823,0.3821,0.3808,0.3806,0.3806,0.3857,0.3796,0.3796,0.3795,0.3872,0.3874,0.3876,0,0,0,0,0,0,0.3788,0.3793,0.3826,0.381,0.3815,0.3819,0.3826,0.3826,0.3833,0.382,0.3817,0.3832,0.3807,0.3806,0.3824,0.3854,0.3795,0.3795,0.3869,0.3872,0.3875,0.394,0,0,0,0,0,0,0.3787,0.3792,0.3798,0.3811,0.3816,0.3852,0.3827,0.3827,0.3841,0.3838,0.3827,0.3824,0.3806,0.3824,0.3824,0.3853,0.3795,0.3866,0.387,0.3874,0.3935,0.3945,0.3953,0,0,0,0,0,0.3784,0.3796,0.3798,0.3803,0.3824,0.3854,0.3857,0.3853,0.3842,0.3855,0.385,0.3824,0.3849,0.3826,0.3825,0.3855,0.3865,0.3869,0.3874,0.3931,0.3943,0.3953,0,0,0,0,0,0,0.3771,0.3796,0.3798,0.3815,0.3839,0.3851,0.3863,0.3863,0.387,0.3867,0.3847,0.3844,0.3878,0.3861,0.3836,0.3892,0.3855,0.3859,0.3898,0.3909,0.3918,0.3936,0.3795,0,0,0,0,0,0.3775,0.3791,0.3816,0.3831,0.3845,0.3857,0.3868,0.3872,0.3881,0.3883,0.3877,0.3879,0.3898,0.3897,0.3909,0.3932,0.3944,0.3954,0.3963,0.397,0.3987,0.4036,0.4051,0.3892,0.3892,0.3892,0,0,0.3771,0.379,0.3796,0.383,0.3845,0.3877,0.3861,0.3887,0.3913,0.388,0.3908,0.3914,0.3915,0.3948,0.396,0.3933,0.4025,0.3976,0.3982,0.3996,0.4043,0.4058,0.4072,0.3895,0.3894,0.3894,0,0,0.3779,0.3795,0.3813,0.3841,0.3877,0.3893,0.3906,0.393,0.3939,0.3971,0.3965,0.3994,0.4001,0.4019,0.4026,0.4094,0.4079,0.4093,0.4141,0.4188,0.4202,0.4214,0.4256,0.4271,0.4087,0.4087,0.4087,0,0.3775,0.3801,0.3824,0.3857,0.3881,0.3905,0.3935,0.3961,0.3987,0.4005,0.3987,0.4045,0.4041,0.41,0.4123,0.4115,0.4135,0.4094,0.42,0.4212,0.4223,0.4264,0.4279,0.409,0.409,0.409,0.4089,0,0.3801,0.3826,0.3843,0.3893,0.3926,0.3957,0.4001,0.4034,0.4047,0.4069,0.4129,0.414,0.417,0.4181,0.4169,0.4252,0.424,0.4212,0.4169,0.4243,0.4281,0.4296,0.4096,0.4094,0.4093,0.4092,0,0,0.3769,0.3845,0.3847,0.3872,0.3945,0.3968,0.4035,0.4092,0.4144,0.4169,0.4231,0.4269,0.4277,0.4289,0.429,0.4332,0.4426,0.4306,0.4306,0.4343,0.4535,0.4499,0.4511,0.4412,0.4415,0.4417,0.4532,0,0.3777,0.3829,0.3873,0.3925,0.3955,0.4013,0.4074,0.4134,0.4193,0.4265,0.4295,0.4359,0.4318,0.435,0.4383,0.4429,0.4469,0.4398,0.4463,0.4466,0.442,0.4529,0.4389,0.4477,0.4547,0.455,0.4551,0,0.3776,0.3814,0.386,0.3938,0.3958,0.4001,0.4105,0.417,0.4287,0.434,0.441,0.4442,0.4523,0.4476,0.4574,0.453,0.454,0.4562,0.4566,0.4521,0.4458,0.4415,0.4502,0.4421,0.4575,0.4573,0.4571,0,0.3719,0.3797,0.3827,0.3854,0.3956,0.3991,0.4055,0.418,0.4253,0.4404,0.4469,0.456,0.4616,0.4656,0.4684,0.4642,0.4792,0.4731,0.4708,0.4705,0.4595,0.4578,0.4607,0.4802,0.4802,0.4801,0.4801,0,0.3698,0.3718,0.38,0.3816,0.387,0.3958,0.4043,0.4144,0.4295,0.4381,0.4493,0.4581,0.4665,0.4742,0.4747,0.479,0.4836,0.4755,0.4747,0.4614,0.4598,0.4527,0.4479,0.4806,0.4805,0.4804,0.4803,0,0.3624,0.3678,0.3714,0.3809,0.3842,0.388,0.4022,0.4089,0.4255,0.438,0.443,0.4624,0.4741,0.4809,0.4911,0.487,0.48,0.491,0.4753,0.4724,0.46,0.4561,0.4429,0.4285,0.4913,0.4913,0.4913,0,0.3589,0.3601,0.3686,0.3701,0.374,0.3814,0.3866,0.4047,0.4132,0.4383,0.4429,0.4622,0.4726,0.4894,0.4909,0.4955,0.4798,0.4821,0.471,0.4613,0.4564,0.4379,0.4253,0.4595,0.4592,0.459,0.4588,0,0.3519,0.3547,0.3574,0.3617,0.3656,0.3704,0.3799,0.3863,0.4066,0.4187,0.4359,0.4486,0.4701,0.4732,0.4834,0.4831,0.4616,0.4777,0.4717,0.437,0.4129,0.3979,0.4502,0.4569,0.4571,0.4572,0.4574,0.4574,0.3455,0.345,0.3485,0.3509,0.3545,0.3562,0.3563,0.3684,0.3794,0.3949,0.4171,0.4306,0.4521,0.4672,0.4643,0.4558,0.4492,0.4428,0.4409,0.4245,0.4038,0.4529,0.4556,0.4557,0.4559,0.456,0.4561,0,0.3355,0.3357,0.3375,0.338,0.3353,0.3427,0.3481,0.3461,0.3511,0.3738,0.3879,0.4083,0.4188,0.4321,0.437,0.4228,0.4005,0.4113,0.3827,0.3732,0.4228,0.4148,0.4036,0.4036,0.4036,0.4036,0.4036,0.4036,0.3302,0.3263,0.3265,0.3179,0.3177,0.309,0.3081,0.31,0.3214,0.3328,0.3458,0.3647,0.4019,0.4232,0.4154,0.4036,0.3706,0.355,0.3507,0.3899,0.3925,0.395,0.3865,0.3697,0.3696,0.2851,0.2845,0.2841]},{"header":{"parameterUnit":"m.s-1","parameterCategory":2,"la1":30.2991,"la2":30.254,"lo1":-89.0895,"lo2":-89.0444,"dy":0.0017,"dx":0.0017,"nx":28,"ny":28,"refTime":"2025-12-19T09:00:00:Z","depth":"0","parameterNumber":3,"parameterNumberName":"V-component_of_CURRENTS"},"data":[0,0,0,0,0,0,0,0,0,0,0,0,0,0,0,0,0,0,0,0,0,0,0,0,0,0,0,0,0,0,0,0,0,0,0,0,0,0,0,0,0,0,0,0,0,0,0,0,0,0,0,0,0,0,0,0,0,0,0.0095,0.0094,0,0.0024,0.0023,0.0022,-0.0029,-0.003,-0.003,-0.003,-0.0127,-0.0129,-0.0131,0,0,0,0,0,0,0,0,0,0,0,0,0,0.011,0.011,0.0095,0.0094,0.0094,0.0024,0.0022,0.0021,-0.0029,-0.003,-0.003,-0.003,-0.0126,-0.0129,-0.0131,0,0,0,0,0,0,0,0,0,0,0,0,0,0.0075,0.011,0.0095,0.0062,0.0058,0.0024,0.0022,0.0021,-0.0029,-0.003,-0.003,-0.003,-0.0125,-0.0128,-0.0132,-0.0148,0,0,-0.0143,-0.0144,0,0,0,0,0,0,0,0,0.0078,0.0075,0.0067,0.0064,0.006,0.0008,-0.0008,-0.0036,-0.0029,0.0001,-0.003,-0.003,-0.0082,-0.0089,-0.0105,-0.0152,-0.0156,-0.0143,-0.0145,-0.0147,-0.0148,0,0,0,0,0,0,0,0.008,0.0077,0.0064,0.0067,0.0062,0.0024,0.0019,-0.0014,-0.004,-0.0001,-0.0005,-0.0009,-0.0085,-0.0101,-0.0108,-0.0158,-0.0143,-0.0146,-0.0148,-0.015,-0.0219,-0.0219,0,0,0,0,0,0,0.0098,0.008,0.0067,0.0062,0.0071,0.0024,0.0019,0.0023,-0.0039,-0.0048,-0.0008,-0.0011,-0.0095,-0.0103,-0.0111,-0.0112,-0.0147,-0.015,-0.0152,-0.022,-0.0219,-0.0219,0,0,0,0,0,0,0.0099,0.0098,0.007,0.0071,0.0065,0.0025,0.003,0.0022,0.001,-0.0044,-0.0054,-0.0011,-0.0096,-0.0106,-0.013,-0.0117,-0.0152,-0.0155,-0.022,-0.022,-0.0219,-0.0127,0,0,0,0,0,0,0.01,0.0099,0.0105,0.0072,0.0065,0.0063,0.003,0.0021,0.0009,0.0005,-0.0049,-0.0059,-0.0097,-0.0125,-0.0134,-0.0122,-0.0158,-0.022,-0.022,-0.0219,-0.0131,-0.0124,-0.0118,0,0,0,0,0,0.0101,0.0121,0.0106,0.0104,0.0077,0.0065,0.0058,0.0026,0.0009,0.0012,-0.0026,-0.0057,-0.0128,-0.0127,-0.0138,-0.0127,-0.0221,-0.022,-0.0219,-0.0134,-0.0125,-0.0118,0,0,0,0,0,0,0.013,0.0117,0.01,0.0114,0.0095,0.0057,0.0057,0.0034,0.0005,0.0002,-0.0052,-0.0064,-0.0082,-0.0118,-0.0115,-0.0147,-0.018,-0.0182,-0.0112,-0.0104,-0.0098,-0.0071,-0.0161,0,0,0,0,0,0.0141,0.0151,0.0127,0.0136,0.0132,0.0094,0.0084,0.0065,0.0036,0.0023,-0.0015,-0.0057,-0.0089,-0.0105,-0.0141,-0.0155,-0.0195,-0.0158,-0.0151,-0.0145,-0.0132,-0.0181,-0.0178,-0.0217,-0.0217,-0.0217,0,0,0.0154,0.0148,0.0152,0.0143,0.0124,0.0134,0.0087,0.0083,0.009,0.0018,0.0012,-0.0035,-0.0088,-0.0105,-0.0116,-0.0131,-0.0156,-0.0145,-0.0139,-0.0129,-0.018,-0.0176,-0.0173,-0.0216,-0.0216,-0.0216,0,0,0.0195,0.0182,0.0207,0.0199,0.0184,0.0165,0.017,0.0138,0.0122,0.0108,0.0059,0.0024,-0.0027,-0.0059,-0.0083,-0.0063,-0.0121,-0.0079,-0.0023,-0.0071,-0.0068,-0.0065,-0.0109,-0.0111,-0.0075,-0.0074,-0.0074,0,0.021,0.0241,0.021,0.0233,0.0239,0.0188,0.022,0.0195,0.0159,0.0154,0.012,0.0046,-0.0003,-0.0019,-0.0016,-0.0047,-0.0084,-0.0045,-0.0061,-0.006,-0.0059,-0.0104,-0.0108,-0.007,-0.0071,-0.0071,-0.0071,0,0.0271,0.0293,0.0309,0.0324,0.0324,0.0342,0.0314,0.0304,0.0274,0.0247,0.0218,0.0141,0.0102,0.0073,0.0033,0.0018,-0.0013,-0.0047,-0.0075,-0.0049,-0.0099,-0.0104,-0.0064,-0.0065,-0.0067,-0.0068,0,0,0.0319,0.0349,0.0355,0.0384,0.0378,0.0391,0.0399,0.04,0.0419,0.035,0.036,0.028,0.0232,0.0201,0.0137,0.0088,0.0053,0.003,0.0026,-0.0002,-0.005,-0.0067,-0.0076,0.0015,0.0015,0.0015,-0.0086,0,0.0379,0.0453,0.0447,0.0514,0.0552,0.0516,0.0532,0.052,0.0496,0.0487,0.0393,0.0374,0.0283,0.0267,0.0202,0.0097,0.0043,0.0084,-0.008,-0.0085,-0.0095,-0.0081,-0.0057,-0.0143,-0.0092,-0.0093,-0.0093,0,0.0447,0.0491,0.0572,0.0623,0.0636,0.0659,0.069,0.0704,0.0669,0.0649,0.06,0.0525,0.0447,0.0361,0.0191,0.0222,0.0099,0.0002,-0.0004,-0.0054,-0.0112,-0.0163,-0.0156,-0.0377,-0.0102,-0.0102,-0.0101,0,0.0513,0.0582,0.0655,0.0671,0.0712,0.0735,0.0756,0.0751,0.0794,0.0759,0.0774,0.0654,0.0611,0.0437,0.0233,0.0213,0.0038,-0.0015,-0.015,-0.0153,-0.0179,-0.0183,-0.0393,-0.0137,-0.0137,-0.0137,-0.0136,0,0.0588,0.0645,0.069,0.073,0.0823,0.0816,0.0908,0.0906,0.0928,0.0996,0.0868,0.0885,0.0627,0.0491,0.0282,0.006,0.0074,-0.0132,-0.0177,-0.0147,-0.0147,-0.0379,-0.0525,-0.014,-0.0139,-0.0139,-0.0138,0,0.065,0.0675,0.0768,0.0829,0.0858,0.0926,0.1027,0.1095,0.1093,0.1174,0.117,0.1066,0.0895,0.0623,0.0351,0.0149,-0.0212,-0.0164,-0.011,-0.0146,-0.0475,-0.0615,-0.0892,-0.0983,-0.0326,-0.0327,-0.0328,0,0.0691,0.0744,0.0853,0.0921,0.0953,0.1056,0.1134,0.1178,0.1271,0.1297,0.135,0.1208,0.115,0.0741,0.0354,-0.0011,-0.0243,-0.0238,-0.0276,-0.0484,-0.0675,-0.0778,-0.0842,-0.0282,-0.0283,-0.0283,-0.0283,0,0.0771,0.0804,0.0882,0.1029,0.1125,0.1257,0.1374,0.1474,0.1531,0.1601,0.1664,0.1616,0.1224,0.0881,0.0367,0.0096,-0.0398,-0.0255,-0.0491,-0.0671,-0.0779,-0.0889,-0.0229,-0.0286,-0.0286,-0.0286,-0.0285,-0.0285,0.0829,0.0901,0.1006,0.1148,0.1269,0.1433,0.1561,0.1698,0.1861,0.1986,0.192,0.1912,0.1378,0.0695,0.0291,-0.0416,-0.0443,-0.062,-0.0776,-0.0863,-0.0948,-0.0288,-0.0382,-0.0382,-0.0383,-0.0383,-0.0383,0,0.0904,0.0987,0.1122,0.1289,0.1436,0.149,0.1707,0.1851,0.2059,0.2182,0.2249,0.2,0.1346,0.0659,-0.0295,-0.0814,-0.1008,-0.1118,-0.1269,-0.131,-0.0734,-0.0725,-0.0873,-0.0873,-0.0873,-0.0873,-0.0872,-0.0872,0.0943,0.1078,0.1149,0.1396,0.1521,0.1735,0.1868,0.2084,0.2239,0.2413,0.2437,0.2409,0.1868,0.0115,-0.1045,-0.132,-0.1692,-0.1811,-0.1988,-0.161,-0.1575,-0.1542,-0.1566,-0.1888,-0.189,-0.2461,-0.2467,-0.2472]}],[{"header":{"parameterUnit":"m.s-1","parameterCategory":2,"la1":30.2991,"la2":30.254,"lo1":-89.0895,"lo2":-89.0444,"dy":0.0017,"dx":0.0017,"nx":28,"ny":28,"refTime":"2025-12-19T09:00:00:Z","depth":"2","parameterNumber":2,"parameterNumberName":"U-component_of_CURRENTS"},"data":[0,0,0,0,0,0,0,0,0,0,0,0,0,0,0,0,0,0,0,0,0,0,0,0,0,0,0,0,0,0,0,0,0,0,0,0,0,0,0,0,0,0,0,0,0,0,0,0,0,0,0,0,0,0,0,0,0,0,0.3536,0.3536,0,0.3562,0.3562,0.3562,0.3552,0.3552,0.3552,0.3551,0.3547,0.3547,0.3547,0,0,0,0,0,0,0,0,0,0,0,0,0,0.3476,0.3477,0.3536,0.3537,0.3537,0.3562,0.3562,0.3562,0.3552,0.3552,0.3552,0.3551,0.3547,0.3547,0.3547,0,0,0,0,0,0,0,0,0,0,0,0,0,0.3499,0.3477,0.3536,0.3538,0.3538,0.3562,0.3562,0.3562,0.3552,0.3552,0.3551,0.3551,0.3547,0.3547,0.3547,0.3558,0,0,0.3548,0.3548,0,0,0,0,0,0,0,0,0.3498,0.3501,0.3537,0.3538,0.3538,0.3556,0.3539,0.356,0.3552,0.3544,0.3551,0.3551,0.3549,0.3549,0.3551,0.3557,0.3557,0.3548,0.3548,0.3548,0.3548,0,0,0,0,0,0,0,0.3496,0.35,0.3543,0.3538,0.3539,0.3537,0.3539,0.3543,0.3546,0.3544,0.3545,0.3553,0.3549,0.3551,0.3551,0.3557,0.3548,0.3548,0.3548,0.3548,0.3632,0.3634,0,0,0,0,0,0,0.35,0.3498,0.3542,0.3544,0.352,0.3538,0.3541,0.3548,0.3546,0.3547,0.3553,0.3552,0.3551,0.3551,0.3551,0.3611,0.3548,0.3548,0.3548,0.363,0.3632,0.3635,0,0,0,0,0,0,0.3499,0.3504,0.3541,0.3524,0.3529,0.354,0.3548,0.3549,0.3564,0.3554,0.3553,0.3569,0.355,0.355,0.3575,0.3608,0.3548,0.3549,0.3627,0.3631,0.3633,0.37,0,0,0,0,0,0,0.3497,0.3503,0.3512,0.3524,0.353,0.3569,0.3549,0.355,0.3571,0.357,0.3568,0.3566,0.355,0.3575,0.3575,0.3608,0.3549,0.3625,0.3629,0.3632,0.3695,0.3705,0.3713,0,0,0,0,0,0.3494,0.3508,0.3512,0.3518,0.3542,0.357,0.3574,0.3577,0.3572,0.3587,0.3589,0.3566,0.36,0.3577,0.3576,0.361,0.3623,0.3628,0.3632,0.3691,0.3703,0.3713,0,0,0,0,0,0,0.3484,0.3509,0.3514,0.3534,0.3558,0.357,0.3585,0.359,0.3603,0.3604,0.3588,0.3588,0.3627,0.3612,0.3587,0.3648,0.361,0.3615,0.3655,0.3666,0.3675,0.3691,0.3549,0,0,0,0,0,0.3488,0.3506,0.3531,0.3549,0.3564,0.3579,0.3592,0.36,0.3612,0.3618,0.3618,0.3625,0.3646,0.3649,0.3662,0.3688,0.3698,0.3713,0.3722,0.373,0.3746,0.3792,0.3806,0.365,0.365,0.365,0,0,0.3487,0.3506,0.3514,0.3549,0.3566,0.3597,0.3585,0.3616,0.3643,0.3616,0.3651,0.366,0.3663,0.3699,0.3715,0.3689,0.3783,0.3736,0.3742,0.3754,0.3798,0.3813,0.3827,0.3653,0.3653,0.3652,0,0,0.3497,0.3516,0.3536,0.3564,0.3603,0.3618,0.3634,0.366,0.3675,0.371,0.3708,0.3741,0.3754,0.3772,0.3779,0.3848,0.3836,0.3852,0.3901,0.3946,0.3959,0.3971,0.4011,0.4026,0.3848,0.3848,0.3848,0,0.3497,0.3523,0.3547,0.358,0.3604,0.3633,0.3663,0.369,0.3722,0.3742,0.3731,0.3794,0.3793,0.3852,0.3877,0.387,0.3891,0.3855,0.3958,0.3969,0.398,0.4018,0.4033,0.3851,0.3851,0.3851,0.385,0,0.3522,0.355,0.3569,0.3619,0.3651,0.3684,0.3728,0.3764,0.3785,0.3807,0.3873,0.3887,0.3922,0.3934,0.3925,0.4007,0.3997,0.3969,0.3926,0.4,0.4035,0.405,0.3857,0.3856,0.3854,0.3853,0,0,0.3496,0.357,0.3575,0.36,0.3673,0.3696,0.3763,0.382,0.3874,0.3906,0.3971,0.4013,0.4026,0.4039,0.4043,0.4084,0.4178,0.4063,0.4063,0.4098,0.4284,0.4236,0.4247,0.4167,0.4169,0.4172,0.428,0,0.3506,0.3558,0.36,0.3654,0.3683,0.3742,0.3802,0.3863,0.3923,0.3998,0.4031,0.41,0.4065,0.4103,0.4136,0.418,0.4219,0.4151,0.4212,0.4215,0.4159,0.4263,0.3916,0.398,0.4294,0.4297,0.4298,0,0.3508,0.3545,0.3593,0.3669,0.3689,0.3734,0.3839,0.3902,0.4019,0.4073,0.4147,0.4183,0.4265,0.4224,0.4319,0.4279,0.429,0.4311,0.4314,0.4258,0.4195,0.3958,0.3995,0.4323,0.4321,0.4319,0.4317,0,0.3456,0.3533,0.3565,0.3592,0.3692,0.3731,0.3795,0.3917,0.3989,0.414,0.4207,0.4298,0.4359,0.4397,0.4426,0.4388,0.4528,0.447,0.4438,0.4434,0.4145,0.4111,0.4539,0.4539,0.4538,0.4538,0.4538,0,0.3438,0.3461,0.3544,0.3562,0.3619,0.3704,0.3793,0.3891,0.4039,0.4123,0.4238,0.4323,0.4407,0.448,0.4485,0.452,0.457,0.4481,0.4472,0.416,0.4128,0.442,0.4404,0.4542,0.4541,0.4541,0.454,0,0.3371,0.3425,0.3464,0.356,0.3595,0.3637,0.3779,0.3845,0.4009,0.4133,0.4186,0.4369,0.4479,0.4544,0.4638,0.4595,0.4636,0.4624,0.4261,0.4208,0.4495,0.4482,0.4613,0.4613,0.4612,0.4612,0.4612,0,0.334,0.3354,0.3442,0.3462,0.3504,0.3583,0.3636,0.3812,0.3893,0.4136,0.4181,0.4365,0.4453,0.4601,0.4586,0.4618,0.4659,0.4298,0.4163,0.4532,0.451,0.4497,0.4485,0.3802,0.3796,0.379,0.3785,0,0.3276,0.3308,0.3337,0.3386,0.3431,0.348,0.3577,0.3637,0.3833,0.3949,0.4106,0.4216,0.4387,0.4289,0.4366,0.4324,0.4271,0.4188,0.467,0.3851,0.378,0.3754,0.3766,0.3735,0.374,0.3744,0.3747,0.3749,0.3219,0.3218,0.3258,0.3287,0.3329,0.3347,0.3349,0.346,0.3562,0.3689,0.3893,0.3936,0.4021,0.3978,0.3877,0.3797,0.4085,0.3874,0.3886,0.3904,0.3805,0.3739,0.3667,0.3672,0.3676,0.3679,0.3682,0,0.3128,0.3134,0.3156,0.3168,0.3144,0.3224,0.3273,0.3238,0.3275,0.3433,0.3541,0.3311,0.33,0.3363,0.3183,0.322,0.3128,0.3071,0.2896,0.2952,0.3001,0.2847,0.2459,0.2455,0.2451,0.2447,0,0,0.308,0.3046,0.3047,0.2969,0.2977,0.2897,0.2889,0.2874,0.2929,0.2908,0.2909,0.3177,0.3298,0.2826,0.2792,0.2583,0.2734,0.2488,0.3483,0.3335,0.3377,0.3499,0.3333,0,0,0,0,0]},{"header":{"parameterUnit":"m.s-1","parameterCategory":2,"la1":30.2991,"la2":30.254,"lo1":-89.0895,"lo2":-89.0444,"dy":0.0017,"dx":0.0017,"nx":28,"ny":28,"refTime":"2025-12-19T09:00:00:Z","depth":"2","parameterNumber":3,"parameterNumberName":"V-component_of_CURRENTS"},"data":[0,0,0,0,0,0,0,0,0,0,0,0,0,0,0,0,0,0,0,0,0,0,0,0,0,0,0,0,0,0,0,0,0,0,0,0,0,0,0,0,0,0,0,0,0,0,0,0,0,0,0,0,0,0,0,0,0,0,0.0204,0.0204,0,0.0137,0.0136,0.0135,0.0085,0.0085,0.0085,0.0084,-0.0008,-0.001,-0.0012,0,0,0,0,0,0,0,0,0,0,0,0,0,0.0219,0.0219,0.0205,0.0204,0.0203,0.0137,0.0136,0.0135,0.0085,0.0085,0.0084,0.0084,-0.0007,-0.0009,-0.0012,0,0,0,0,0,0,0,0,0,0,0,0,0,0.0187,0.0219,0.0205,0.0172,0.0168,0.0137,0.0136,0.0134,0.0085,0.0085,0.0084,0.0084,-0.0006,-0.0009,-0.0012,-0.0025,0,0,-0.0023,-0.0024,0,0,0,0,0,0,0,0,0.0189,0.0186,0.0177,0.0174,0.017,0.0121,0.0107,0.0081,0.0085,0.0115,0.0084,0.0084,0.0034,0.0028,0.0014,-0.0029,-0.0033,-0.0023,-0.0025,-0.0026,-0.0027,0,0,0,0,0,0,0,0.0191,0.0188,0.0176,0.0177,0.0172,0.0136,0.0131,0.0102,0.0076,0.0112,0.0109,0.0104,0.0032,0.0017,0.0011,-0.0034,-0.0023,-0.0026,-0.0028,-0.0029,-0.0093,-0.0093,0,0,0,0,0,0,0.0207,0.0191,0.0178,0.0174,0.0181,0.0136,0.0131,0.0135,0.0077,0.0068,0.0105,0.0102,0.0023,0.0015,0.0008,0.0007,-0.0026,-0.0029,-0.0031,-0.0093,-0.0093,-0.0093,0,0,0,0,0,0,0.0208,0.0207,0.0181,0.0181,0.0176,0.0137,0.0142,0.0134,0.0122,0.0072,0.0062,0.0102,0.0022,0.0012,-0.001,0.0002,-0.0031,-0.0034,-0.0094,-0.0093,-0.0093,-0.0006,0,0,0,0,0,0,0.0209,0.0208,0.0214,0.0183,0.0177,0.0175,0.0142,0.0133,0.0121,0.0117,0.0066,0.0056,0.0021,-0.0005,-0.0013,-0.0003,-0.0036,-0.0094,-0.0093,-0.0093,-0.0009,-0.0003,0.0003,0,0,0,0,0,0.021,0.0229,0.0215,0.0213,0.0188,0.0176,0.0169,0.0138,0.0122,0.0124,0.0088,0.0058,-0.0008,-0.0007,-0.0017,-0.0007,-0.0094,-0.0093,-0.0093,-0.0012,-0.0004,0.0003,0,0,0,0,0,0,0.0238,0.0225,0.0209,0.0223,0.0204,0.0168,0.0168,0.0146,0.0118,0.0114,0.0064,0.0052,0.0035,0.0002,0.0004,-0.0026,-0.0057,-0.0058,0.0008,0.0015,0.0021,0.0045,-0.0039,0,0,0,0,0,0.0248,0.0259,0.0235,0.0244,0.0239,0.0203,0.0193,0.0174,0.0147,0.0135,0.0098,0.0059,0.0029,0.0014,-0.002,-0.0032,-0.0072,-0.0035,-0.0028,-0.0023,-0.0011,-0.0061,-0.0058,-0.009,-0.009,-0.009,0,0,0.026,0.0255,0.0259,0.025,0.0231,0.0242,0.0196,0.0191,0.0198,0.0129,0.0124,0.0079,0.003,0.0015,0.0004,-0.001,-0.0035,-0.0022,-0.0017,-0.0008,-0.006,-0.0057,-0.0054,-0.009,-0.009,-0.009,0,0,0.0299,0.0287,0.0311,0.0303,0.0288,0.027,0.0274,0.0244,0.0228,0.0214,0.0168,0.0135,0.0088,0.0057,0.0036,0.0055,-0.0002,0.004,0.0092,0.0044,0.0046,0.0048,0.0003,-0.0001,0.0044,0.0044,0.0044,0,0.0313,0.0343,0.0314,0.0336,0.0342,0.0291,0.0322,0.0298,0.0263,0.0258,0.0226,0.0155,0.011,0.0095,0.0099,0.007,0.0032,0.0072,0.0053,0.0054,0.0054,0.0007,0.0002,0.0048,0.0048,0.0048,0.0047,0,0.0372,0.0393,0.0407,0.0422,0.0422,0.0438,0.0412,0.0402,0.0372,0.0346,0.0317,0.0246,0.0208,0.0182,0.0145,0.0129,0.0098,0.0067,0.004,0.0063,0.0011,0.0005,0.0055,0.0053,0.0052,0.0051,0,0,0.0416,0.0446,0.0451,0.0479,0.0473,0.0486,0.0493,0.0493,0.0509,0.0444,0.0451,0.0377,0.033,0.0302,0.0242,0.0193,0.0155,0.0138,0.0133,0.0103,0.0049,0.0026,0.0016,0.0119,0.0119,0.0118,0.0012,0,0.0472,0.0543,0.0538,0.0602,0.0638,0.0604,0.0619,0.0607,0.0582,0.0572,0.0482,0.0463,0.0379,0.0362,0.0299,0.0197,0.0143,0.0187,0.0022,0.0018,0.0002,0.001,0.0039,-0.0053,0.0006,0.0004,0.0004,0,0.0536,0.0578,0.0656,0.0705,0.0717,0.074,0.0767,0.078,0.0745,0.0725,0.0676,0.0603,0.0527,0.0447,0.0279,0.0311,0.0192,0.0099,0.0092,0.0038,-0.0017,-0.0069,-0.0067,-0.0007,-0.0007,-0.0006,-0.0005,0,0.0597,0.0663,0.0733,0.0749,0.0789,0.0811,0.0831,0.0824,0.0863,0.0826,0.0838,0.0721,0.0676,0.0509,0.031,0.0296,0.0118,0.0072,-0.0065,-0.0068,-0.009,-0.0094,-0.0049,-0.0049,-0.0049,-0.0049,-0.0048,0,0.0667,0.0722,0.0766,0.0804,0.0892,0.0886,0.0972,0.0969,0.0988,0.1049,0.0926,0.0936,0.0689,0.0552,0.0353,0.0133,0.0147,-0.0051,-0.0095,-0.006,-0.006,-0.0058,-0.0058,-0.0053,-0.0052,-0.0051,-0.005,0,0.0724,0.075,0.0838,0.0897,0.0925,0.0989,0.1085,0.1147,0.1144,0.1216,0.121,0.1102,0.0928,0.0668,0.0401,0.0209,-0.0012,-0.0097,-0.0038,-0.0074,-0.0179,-0.0173,-0.0259,-0.026,-0.0262,-0.0263,-0.0264,0,0.0762,0.0813,0.0917,0.0982,0.1013,0.1111,0.1185,0.1225,0.131,0.1326,0.1373,0.1225,0.1155,0.0751,0.0383,0.0031,-0.0016,-0.0179,-0.0207,-0.0165,-0.02,-0.0192,-0.0184,-0.0209,-0.0209,-0.021,-0.021,0,0.0836,0.0868,0.0942,0.1082,0.1174,0.1299,0.1409,0.15,0.155,0.1607,0.1649,0.1589,0.1203,0.0855,0.0361,0.0119,-0.0123,-0.0198,-0.0171,-0.0153,-0.0125,-0.0157,-0.015,-0.0213,-0.0213,-0.0213,-0.0212,-0.0212,0.0889,0.0957,0.1057,0.1191,0.1307,0.146,0.158,0.1702,0.1844,0.1931,0.1862,0.1778,0.1364,0.0745,0.0311,-0.0153,-0.0129,-0.0291,-0.0287,-0.0283,-0.0251,-0.0226,-0.0328,-0.0328,-0.0328,-0.0329,-0.0329,0,0.0958,0.1036,0.1163,0.1321,0.146,0.1515,0.1715,0.1835,0.201,0.2066,0.2098,0.1704,0.1301,0.0816,0.0134,-0.0262,-0.0296,-0.0394,-0.0344,-0.0337,-0.0332,-0.0301,-0.0392,-0.0393,-0.0395,-0.0396,0,0,0.0993,0.1118,0.1186,0.1417,0.1537,0.1737,0.1859,0.2029,0.2122,0.2189,0.2136,0.2034,0.1442,0.0945,0.0395,-0.0002,-0.0079,-0.0084,0.0011,0.0142,0.0152,-0.0229,-0.0167,0,0,0,0,0]}],[{"header":{"parameterUnit":"m.s-1","parameterCategory":2,"la1":30.2991,"la2":30.254,"lo1":-89.0895,"lo2":-89.0444,"dy":0.0017,"dx":0.0017,"nx":28,"ny":28,"refTime":"2025-12-19T09:00:00:Z","depth":"4","parameterNumber":2,"parameterNumberName":"U-component_of_CURRENTS"},"data":[0,0,0,0,0,0,0,0,0,0,0,0,0,0,0,0,0,0,0,0,0,0,0,0,0,0,0,0,0,0,0,0,0,0,0,0,0,0,0,0,0,0,0,0,0,0,0,0,0,0,0,0,0,0,0,0,0,0,0.2328,0.2329,0,0.241,0.2411,0.2412,0.2482,0.2483,0.2484,0.2485,0.2584,0.2585,0.2587,0,0,0,0,0,0,0,0,0,0,0,0,0,0.2218,0.222,0.2328,0.233,0.2331,0.241,0.2411,0.2412,0.2482,0.2483,0.2484,0.2485,0.2583,0.2585,0.2587,0,0,0,0,0,0,0,0,0,0,0,0,0,0.2277,0.222,0.2328,0.2377,0.2382,0.241,0.2411,0.2412,0.2482,0.2483,0.2485,0.2486,0.2582,0.2585,0.2587,0.2572,0,0,0.2595,0.2596,0,0,0,0,0,0,0,0,0.2274,0.2281,0.2369,0.2374,0.238,0.244,0.2409,0.2468,0.2481,0.2441,0.2485,0.2487,0.2538,0.2544,0.2552,0.2577,0.2581,0.2595,0.2597,0.2598,0.2598,0,0,0,0,0,0,0,0.227,0.2278,0.2358,0.237,0.2377,0.2391,0.24,0.242,0.2478,0.2445,0.2451,0.2463,0.2541,0.2549,0.2555,0.2583,0.2595,0.2597,0.2599,0.26,0.2754,0.2756,0,0,0,0,0,0,0.2264,0.2274,0.2356,0.2361,0.2332,0.2392,0.2402,0.2417,0.2478,0.2489,0.2462,0.2466,0.2544,0.2552,0.2559,0.268,0.2598,0.26,0.2602,0.2751,0.2754,0.2757,0,0,0,0,0,0,0.2261,0.2271,0.2352,0.2321,0.2333,0.2392,0.2408,0.2418,0.2479,0.2491,0.2503,0.2519,0.2546,0.2555,0.2626,0.268,0.2601,0.2604,0.2748,0.2752,0.2756,0.2837,0,0,0,0,0,0,0.2258,0.2269,0.2301,0.2321,0.2335,0.2402,0.2407,0.2418,0.2483,0.2491,0.2543,0.2551,0.2548,0.2622,0.2629,0.2682,0.2605,0.2745,0.275,0.2754,0.2831,0.2843,0.2853,0,0,0,0,0,0.2254,0.2281,0.2302,0.2313,0.2369,0.2404,0.2413,0.2457,0.2485,0.2518,0.256,0.2552,0.2658,0.2626,0.2633,0.2688,0.2742,0.2748,0.2754,0.2826,0.284,0.2853,0,0,0,0,0,0,0.2252,0.2292,0.2315,0.2356,0.2395,0.2418,0.2461,0.2486,0.2545,0.2571,0.258,0.2591,0.2675,0.2671,0.2636,0.2748,0.2701,0.2708,0.2753,0.2767,0.2778,0.2783,0.2608,0,0,0,0,0,0.2265,0.2302,0.2336,0.2376,0.2401,0.2441,0.2472,0.2502,0.2544,0.2574,0.2611,0.2654,0.2694,0.2724,0.2755,0.2811,0.2812,0.2853,0.2865,0.2874,0.2885,0.293,0.2946,0.2776,0.2776,0.2776,0,0,0.2276,0.2306,0.2329,0.2381,0.2418,0.2459,0.2465,0.2527,0.2574,0.2573,0.2667,0.2699,0.2719,0.2788,0.2825,0.2798,0.2926,0.2881,0.2889,0.2895,0.2938,0.2954,0.2969,0.278,0.2779,0.2779,0,0,0.2299,0.2347,0.2382,0.242,0.2485,0.2508,0.2538,0.2593,0.2639,0.2715,0.2734,0.2801,0.2861,0.2887,0.2903,0.2995,0.2986,0.3016,0.3076,0.312,0.3134,0.3146,0.3175,0.319,0.3019,0.3019,0.3019,0,0.2318,0.236,0.2399,0.2441,0.2481,0.2536,0.2581,0.2629,0.2706,0.2747,0.2763,0.2882,0.2904,0.298,0.3019,0.3021,0.3042,0.3019,0.3134,0.3146,0.3157,0.3184,0.3198,0.3023,0.3023,0.3022,0.3022,0,0.2348,0.2404,0.2432,0.2503,0.255,0.2603,0.2664,0.2734,0.2798,0.2838,0.2951,0.2991,0.3058,0.3083,0.3082,0.318,0.3168,0.3143,0.3094,0.3179,0.3202,0.3215,0.303,0.3028,0.3027,0.3026,0,0,0.2325,0.2433,0.2448,0.2492,0.259,0.2624,0.272,0.2802,0.2879,0.2962,0.3054,0.3134,0.3171,0.3195,0.3215,0.326,0.336,0.3248,0.3248,0.3268,0.3463,0.3247,0.3241,0.336,0.3363,0.3365,0.3449,0,0.2343,0.242,0.2476,0.2564,0.2607,0.2693,0.2773,0.2863,0.2953,0.3058,0.3121,0.3223,0.3208,0.3271,0.3313,0.3358,0.34,0.3339,0.3386,0.3387,0.3177,0.3251,0.3374,0.3459,0.3462,0.3464,0.3466,0,0.2342,0.2398,0.2482,0.2595,0.2626,0.2698,0.284,0.2923,0.3069,0.3147,0.3252,0.331,0.3414,0.3388,0.3492,0.346,0.3475,0.3492,0.3495,0.3272,0.3196,0.3357,0.349,0.3488,0.3486,0.3484,0.3483,0,0.2278,0.2396,0.2465,0.2506,0.2644,0.2718,0.2808,0.2957,0.3043,0.3227,0.3309,0.3424,0.3507,0.3552,0.3588,0.3563,0.3682,0.3638,0.3453,0.3438,0.3571,0.3557,0.3704,0.3704,0.3704,0.3703,0.3703,0,0.2242,0.2303,0.2453,0.249,0.2592,0.2705,0.2836,0.2952,0.312,0.3211,0.3358,0.3435,0.3559,0.3627,0.3636,0.358,0.3716,0.3475,0.3447,0.3604,0.3593,0.3581,0.3565,0.3706,0.3706,0.3705,0.3705,0,0.2153,0.2253,0.2341,0.2504,0.2566,0.2645,0.2842,0.2921,0.3109,0.324,0.3306,0.3482,0.3564,0.3644,0.373,0.3617,0.3607,0.3553,0.3733,0.3713,0.3324,0.3313,0.3346,0.3339,0.3334,0.3329,0.3325,0,0.2107,0.2148,0.2333,0.239,0.2476,0.2614,0.2699,0.2902,0.2982,0.3224,0.3256,0.3423,0.3505,0.3446,0.3555,0.3555,0.3509,0.3479,0.3379,0.3319,0.329,0.3288,0.3284,0.3315,0.3314,0.3312,0.3311,0,0.2018,0.2109,0.2181,0.2304,0.2407,0.2497,0.2638,0.2675,0.2887,0.3079,0.3127,0.3169,0.3253,0.3301,0.3331,0.3323,0.3483,0.3416,0.3427,0.3333,0.3282,0.3258,0.3262,0.329,0.3293,0.3295,0.3296,0,0.1958,0.1985,0.2097,0.2182,0.23,0.2337,0.2431,0.2507,0.2608,0.2861,0.287,0.3041,0.3213,0.3182,0.321,0.3189,0.313,0.3011,0.3042,0.3066,0.2934,0.2825,0.2676,0,0,0,0,0,0.188,0.189,0.196,0.2034,0.2139,0.2209,0.2362,0.2455,0.2653,0.261,0.2731,0.2792,0.2832,0.2931,0.2851,0.3094,0.315,0.2988,0.3031,0.3178,0.3201,0.3071,0,0,0,0,0,0,0.1825,0.1888,0.1905,0.1888,0.1908,0.2,0.2088,0.2223,0.2211,0.2423,0.246,0.2622,0.2708,0.2843,0.2796,0.2825,0.2793,0.3105,0.3098,0.3165,0.3186,0.3205,0.3079,0,0,0,0,0]},{"header":{"parameterUnit":"m.s-1","parameterCategory":2,"la1":30.2991,"la2":30.254,"lo1":-89.0895,"lo2":-89.0444,"dy":0.0017,"dx":0.0017,"nx":28,"ny":28,"refTime":"2025-12-19T09:00:00:Z","depth":"4","parameterNumber":3,"parameterNumberName":"V-component_of_CURRENTS"},"data":[0,0,0,0,0,0,0,0,0,0,0,0,0,0,0,0,0,0,0,0,0,0,0,0,0,0,0,0,0,0,0,0,0,0,0,0,0,0,0,0,0,0,0,0,0,0,0,0,0,0,0,0,0,0,0,0,0,0,0.0221,0.0221,0,0.0178,0.0178,0.0177,0.0146,0.0146,0.0146,0.0146,0.0082,0.008,0.0079,0,0,0,0,0,0,0,0,0,0,0,0,0,0.0227,0.0227,0.0221,0.0221,0.0221,0.0178,0.0178,0.0177,0.0146,0.0146,0.0146,0.0146,0.0082,0.008,0.0079,0,0,0,0,0,0,0,0,0,0,0,0,0,0.0207,0.0227,0.0221,0.0201,0.0199,0.0179,0.0178,0.0177,0.0146,0.0146,0.0146,0.0146,0.0083,0.0081,0.0078,0.0068,0,0,0.0071,0.007,0,0,0,0,0,0,0,0,0.0208,0.0207,0.0204,0.0202,0.02,0.0168,0.0156,0.014,0.0146,0.0165,0.0146,0.0146,0.011,0.0105,0.0096,0.0065,0.0062,0.0071,0.0069,0.0068,0.0068,0,0,0,0,0,0,0,0.021,0.0208,0.0203,0.0204,0.0201,0.0177,0.0174,0.0153,0.0138,0.0163,0.0161,0.0159,0.0108,0.0099,0.0094,0.0061,0.0071,0.0069,0.0067,0.0066,0.0021,0.0021,0,0,0,0,0,0,0.0221,0.021,0.0205,0.0202,0.0205,0.0177,0.0174,0.0178,0.0138,0.0133,0.0159,0.0157,0.0103,0.0097,0.0092,0.0095,0.0068,0.0066,0.0065,0.0021,0.0021,0.0021,0,0,0,0,0,0,0.0221,0.0221,0.0206,0.0205,0.0202,0.0178,0.0182,0.0177,0.0172,0.0135,0.0129,0.016,0.0102,0.0095,0.0081,0.0092,0.0065,0.0063,0.002,0.0021,0.0021,0.0091,0,0,0,0,0,0,0.0221,0.0221,0.0228,0.0206,0.0202,0.0204,0.0182,0.0177,0.0171,0.0169,0.0134,0.0127,0.0102,0.0085,0.0079,0.0088,0.0061,0.002,0.002,0.0021,0.0088,0.0093,0.0098,0,0,0,0,0,0.0222,0.0238,0.0229,0.0228,0.0213,0.0205,0.0201,0.0181,0.0172,0.0175,0.0151,0.0129,0.0083,0.0084,0.0076,0.0085,0.002,0.002,0.0021,0.0086,0.0092,0.0098,0,0,0,0,0,0,0.0243,0.0235,0.0226,0.0238,0.0225,0.02,0.0203,0.0188,0.0172,0.0171,0.0134,0.0126,0.0116,0.009,0.0092,0.0071,0.0046,0.0046,0.0099,0.0104,0.0109,0.0128,0.0059,0,0,0,0,0,0.0252,0.0262,0.0245,0.0254,0.0252,0.0228,0.0222,0.021,0.0192,0.0185,0.016,0.0132,0.0111,0.0101,0.0076,0.0069,0.0033,0.0067,0.0072,0.0077,0.0086,0.0039,0.0041,0.0023,0.0023,0.0023,0,0,0.0262,0.0259,0.0264,0.0259,0.0248,0.0257,0.0224,0.0224,0.0231,0.018,0.0182,0.0149,0.0112,0.0103,0.0096,0.0085,0.0062,0.0077,0.0081,0.0088,0.004,0.0042,0.0043,0.0023,0.0023,0.0023,0,0,0.0292,0.0286,0.0305,0.0302,0.0293,0.0281,0.0285,0.0265,0.0257,0.0251,0.0216,0.0193,0.0161,0.0137,0.0121,0.0137,0.0088,0.0126,0.0168,0.0123,0.0124,0.0125,0.0079,0.0075,0.013,0.013,0.013,0,0.0304,0.0328,0.0308,0.0326,0.0333,0.0298,0.0323,0.0308,0.0286,0.0284,0.0262,0.0211,0.0178,0.0166,0.0171,0.0149,0.0114,0.0152,0.013,0.013,0.013,0.0083,0.0077,0.0133,0.0133,0.0132,0.0132,0,0.0347,0.0367,0.0379,0.0393,0.0396,0.0411,0.0394,0.039,0.0372,0.0355,0.0335,0.0282,0.0255,0.0235,0.0209,0.0193,0.0165,0.0142,0.0119,0.0136,0.0085,0.0078,0.0138,0.0137,0.0136,0.0135,0,0,0.0376,0.0405,0.0411,0.0435,0.0437,0.0448,0.0458,0.0461,0.0476,0.043,0.0437,0.0384,0.035,0.0328,0.0283,0.024,0.0202,0.0197,0.0193,0.0159,0.01,0.0082,0.0073,0.0173,0.0173,0.0172,0.0065,0,0.0417,0.0473,0.0475,0.0529,0.0558,0.0539,0.0556,0.055,0.0535,0.0528,0.046,0.0449,0.0387,0.0376,0.0323,0.0237,0.0188,0.0233,0.0082,0.0078,0.0066,0.0066,0.017,0.006,0.0058,0.0057,0.0056,0,0.0461,0.0496,0.056,0.0608,0.0619,0.0644,0.0672,0.0685,0.0661,0.0648,0.0611,0.0555,0.0493,0.0435,0.0289,0.032,0.0221,0.0142,0.0136,0.0093,0.0049,0.0037,0.0043,0.0044,0.0045,0.0046,0.0047,0,0.0498,0.0557,0.0617,0.0632,0.0674,0.07,0.0723,0.0723,0.0754,0.0729,0.0737,0.0642,0.0604,0.0465,0.0301,0.0296,0.013,0.01,-0.0014,-0.0017,0.0,0.0,-0.0007,-0.0007,-0.0006,-0.0006,-0.0006,0,0.0541,0.0589,0.0642,0.0674,0.0752,0.0758,0.0834,0.0836,0.0854,0.0897,0.0808,0.0801,0.061,0.0489,0.0327,0.0139,0.0146,-0.0006,-0.0044,0.0031,0.0036,-0.0005,-0.0004,-0.001,-0.0009,-0.0008,-0.0008,0,0.057,0.0602,0.0678,0.0743,0.0775,0.083,0.0925,0.0973,0.0978,0.1026,0.1022,0.0923,0.0765,0.056,0.0331,0.0188,0.0001,-0.007,0.003,-0.0001,-0.0125,-0.0118,-0.0205,-0.0207,-0.0208,-0.0209,-0.021,0,0.0588,0.0631,0.0737,0.0795,0.0832,0.0923,0.0989,0.1034,0.1091,0.1097,0.1117,0.0989,0.0891,0.0565,0.0338,0.0023,-0.0027,-0.0131,-0.0135,-0.0115,-0.0144,-0.0136,-0.0128,-0.0212,-0.0212,-0.0212,-0.0213,0,0.0623,0.0664,0.0727,0.0852,0.0939,0.1047,0.1141,0.119,0.1233,0.1241,0.1196,0.1021,0.084,0.0574,0.0329,0.0101,-0.0068,-0.0145,-0.0144,-0.0149,-0.0124,-0.015,-0.0141,-0.0217,-0.0216,-0.0216,-0.0216,0,0.0651,0.0701,0.0792,0.0901,0.1017,0.1124,0.1178,0.1236,0.1288,0.1283,0.1264,0.1063,0.095,0.0614,0.039,0.0163,0.0096,0.001,0.0001,0.0003,0.0088,0.0152,0.0114,0,0,0,0,0,0.0673,0.0732,0.0835,0.0953,0.107,0.1146,0.1258,0.1299,0.1338,0.1317,0.1295,0.1123,0.079,0.0652,0.0423,0.0347,0.0046,0.0067,-0.0061,-0.0241,-0.0236,-0.0174,0,0,0,0,0,0,0.0684,0.0777,0.083,0.0977,0.1067,0.1203,0.1279,0.131,0.1301,0.13,0.1136,0.1052,0.0738,0.0924,0.0416,0.0348,0.023,-0.0082,-0.0088,-0.0244,-0.0239,-0.0235,-0.017,0,0,0,0,0]}]]